www.pogodaiklimat.ru

Погода и климат >> Архив погоды >> Россия >> Челябинская область >> Катав-Ивановск


ПОГОДА в Катав-Ивановске

  • Прогноз погоды в Катав-Ивановске
  • Монитор погоды в Катав-Ивановске
  • Климат города

АРХИВ ПОГОДЫ в Катав-Ивановске

Время (UTC), дата Ветер
(напр.,м/с)
 
Видим.   Явления Облачность Т
(С)
Тd
(С)
f
(%)
Тe
(С)
Тes
(С)
Комфортность P
(гПа)
Po
(гПа)
Тmin
(С)
Tmax
(С)
R
(мм)
R24
(мм)
S
(см)
09 19.06 ЮЗ 5-10
{10}
50 км {ливн. осадки} 9/9 600 м
[Sc diur, vesp]
+16.4 +10.3 67 +16 +16 1000.7 946.4
12 19.06 ЮЗ 3
{10}
50 км {ливн. осадки} 10/6 600 м
[Cu Sc Cc]
+17.3 +10.4 64 +17 +19 1000.0 946.0
15 19.06 Ю 2
{11}
20 км в посл. час гроза {ливн. осадки} 9/9 600 м
[Sc diur, vesp]
+11.8 +11.7 99 +11 +11 1001.8 946.6 +17.8 1
18 19.06 Ю 3 10 км {гроза} 1/1 600 м
[Cu hum]
+12.3 +11.3 94 +11 +11 1001.2 946.1
21 19.06 Ю 3 20 км 3/1 600 м
[Cu hum]
+10.7 +10.3 97 +9 +9 1001.0 945.7
00 20.06 Ю 2 50 км ясно +10.1 +10.1 100 +8 +8 1001.0 945.6
03 20.06 Ю 2 50 км 9/0
[Ci fib]
+13.5 +12.2 92 +13 +16 1000.2 945.5 +10.0
06 20.06 ЮЗ 3 50 км 9/6 600 м
[Sc Ci fib]
+18.4 +11.4 64 +19 +23 999.0 945.2
09 20.06 З 3 50 км 9/3 600 м
[Sc Ci fib]
+20.0 +9.9 52 +22 +29 комфорт 997.4 944.0
12 20.06 З 1
{10}
50 км сильный ливневой дождь 4/4 600 м
[Cu med, cong]
+16.1 +9.1 63 997.0 944.6
15 20.06 Ю 1 50 км 9/9
[Sc]
+15.5 +11.4 77 +16 +16 997.4 943.2 +21.0 3
18 20.06 Ю 2 4000 м {ливн. осадки} 9/9 600 м
[Sc diur, vesp]
+11.6 +11.5 99 +10 +10 998.4 943.4
21 20.06 ЮЗ 1 4000 м в посл. час ливневой дождь 10/10 600 м
[Sc diur, vesp]
+11.3 +11.2 99 +11 +11 997.8 942.8
00 21.06 З 2 4000 м слабый ливневой дождь 10/10 600 м
[Cb cap]
+10.9 +10.8 99 +9 +9 998.5 943.3
03 21.06 З 2 20 км {ливн. осадки} 10/10 600 м
[Sc]
+11.4 +11.0 97 +10 +10 999.9 944.7 +10.7 7
06 21.06 З 2 20 км {ливн. осадки} 9/9 600 м
[Cu Sc]
+13.4 +11.0 85 +13 +14 1001.2 946.3
09 21.06 З 3 50 км 8/8 600 м
[Cu Sc]
+17.3 +9.8 61 +17 +20 1001.3 947.2
12 21.06 З 3
{10}
50 км 6/6 600 м
[Cu Sc]
+18.5 +7.3 48 +19 +22 1002.0 948.0
15 21.06 З 2 50 км 4/4 600 м
[Cu Sc]
+17.7 +7.4 51 +18 +19 1002.8 948.6 +19.2
18 21.06 Ю 2 4000 м ясно +13.5 +8.3 71 +13 +13 1004.6 949.6
21 21.06 Ю 3 4000 м ясно +10.6 +7.4 81 +9 +9 1004.9 949.3
00 22.06 Ю 3 50 км 3/0
[Ci fib]
+10.6 +6.9 78 +9 +9 1004.5 948.9
03 22.06 Ю 3 20 км 9/9 600 м
[Cu Sc]
+13.7 +8.6 71 +13 +13 1004.0 949.0 +9.9
06 22.06 ЮЗ 2 50 км 8/8 600 м
[Cu Sc]
+21.3 +10.7 51 +23 +26 комфорт 1002.6 949.1
09 22.06 Ю 2
{11}
50 км 9/9 600 м
[Cu Sc]
+22.6 +10.4 46 +24 +26 комфорт 1001.9 948.7
12 22.06 ЮЗ 1 50 км 9/9 600 м
[Cu Sc]
+22.6 +9.7 44 +24 +25 комфорт 1002.0 948.8
15 22.06 ЮВ 1 50 км 9/9 600 м
[Cu Sc]
+19.4 +10.5 56 +22 +22 комфорт 1002.2 948.4 +23.7
18 22.06 ЮЗ 1 4000 м 10/10 600 м
[Cu Sc]
+17.7 +10.8 64 +19 +19 1001.8 947.8
21 22.06 Ю 2 4000 м {гроза} 10/10 600 м
[Cu Sc]
+15.3 +11.7 79 +15 +15 1003.1 948.5
00 23.06 Ю 2 4000 м слабый ливневой дождь {гроза} 10/10 600 м
[Cb cap]
+12.9 +12.7 99 +12 +12 1004.5 949.5
03 23.06 ЮЗ 1 20 км {ливн. осадки} 9/9 600 м
[Cu Sc]
+14.0 +13.6 97 +14 +15 1004.4 949.6 +12.9 5
06 23.06 З 2 50 км {ливн. осадки} 4/4 600 м
[Cu med, cong]
+17.1 +10.5 65 +17 +25 1004.7 950.4
09 23.06 З 2 50 км 8/6 600 м
[Cu med, cong Ci fib]
+17.8 +6.3 47 +18 +24 1005.4 951.1
12 23.06 СЗ 2 50 км 3/3 600 м
[Cu hum]
+18.9 +5.9 43 +20 +26 1005.2 951.0
15 23.06 СЗ 2 50 км 1/1 600 м
[Cu hum]
+17.3 +5.4 45 +18 +19 1006.1 951.6 +20.2
18 23.06 Ю 1 4000 м 1/1 600 м
[Cu hum]
+11.3 +6.8 74 +11 +11 1008.3 952.6
21 23.06 Ю 1 4000 м ясно +8.7 +6.3 85 +8 +8 1008.8 952.5
00 24.06 Ю 2 50 км ясно +6.8 +6.2 96 +4 +4 1009.3 952.7
03 24.06 ЮВ 2 50 км ясно +12.3 +8.0 75 +11 +16 1008.3 952.8 +6.5
06 24.06 ЮЗ 2 50 км 4/4 600 м
[Cu med, cong]
+17.8 +5.2 43 +18 +26 1007.3 952.9
09 24.06 З 3 50 км 8/8 600 м
[Cu Sc]
+19.5 +6.5 43 +20 +23 1006.2 952.1
12 24.06 ЮЗ 3 50 км 8/6 600 м
[Sc Ci sp]
+18.1 +7.1 49 +18 +21 1006.2 951.9
15 24.06 штиль 0 50 км 8/4 600 м
[Sc Ci sp]
+18.2 +8.1 52 +18 +19 1005.0 950.8 +20.3
18 24.06 штиль 0 4000 м 8/0
[Ac trans]
+13.2 +9.0 76 +13 +13 1005.5 950.4
21 24.06 Ю 1 4000 м 10/10 600 м
[Sc]
+12.8 +8.5 75 +13 +13 1003.1 948.0
00 25.06 Ю 1 20 км 10/10 600 м
[Sc]
+14.7 +7.5 62 +15 +15 999.9 945.3
03 25.06 Ю 3-10
{10}
20 км в посл. час ливневой дождь 10/10 600 м
[Cu Sc]
+14.2 +9.9 75 +13 +13 995.8 941.4 +11.6 2
06 25.06 Ю 3
{11}
50 км {ливн. осадки} 8/8 600 м
[Sc diur, vesp]
+17.1 +9.6 61 +17 +19 994.1 940.3
09 25.06 ЮЗ 4-12
{12}
20 км {ливн. осадки} 9/9 600 м
[Sc diur, vesp]
+15.7 +8.9 64 +15 +16 995.9 941.8
12 25.06 Ю 3
{13}
4000 м слабый ливневой дождь 10/10 600 м
[Cb cap]
+10.2 +9.5 95 +8 +8 1000.2 944.8
15 25.06 ЮЗ 3
{10}
50 км {ливн. осадки} 10/10 600 м
[Sc diur, vesp]
+11.1 +7.4 78 +9 +9 1002.8 947.4 +17.4 1
18 25.06 ЮЗ 3
{10}
4000 м {ливн. осадки} 8/8 600 м
[Cu Sc]
+11.3 +6.8 74 +10 +10 1005.3 949.8
21 25.06 ЮЗ 2 4000 м 9/6 600 м
[Sc Ac As]
+11.0 +7.9 81 +10 +10 1006.8 951.1
00 26.06 Ю 1 50 км 8/5 600 м
[Sc Ac cast]
+10.3 +7.9 85 +10 +10 1007.7 951.9
03 26.06 ЮЗ 3 50 км 6/6 600 м
[Cu Sc]
+12.9 +8.4 74 +12 +13 1008.3 953.0 +9.7
06 26.06 З 3 50 км 9/9 600 м
[Cu Sc]
+14.0 +6.0 59 +13 +14 1009.4 954.2

 

Местоположение метеостанции Катав-Ивановск (Челябинская область, Россия): широта 54.77 долгота 58.22 высота над уровнем моря 477 м.

В архиве по умолчанию представлена погода в Катав-Ивановске за последнюю неделю. Архивные данные за месяц целиком и за предыдущие месяцы, начиная с января 2011 года, Вы можете получить, выбрав интересующий диапазон дат из раскрывающегося списка и нажав кнопку "Ввод!".

Внимание! Время в таблицах - всемирное. Для получения местного времени необходимо прибавить поправку, которая в Катав-Ивановске равна 5 ч.

Смотрите также архив погоды в соседних городах и на ближайших метеорологических станциях:

Погода в Улу-Теляке (Башкирия, Россия) (83 км)
Погода в Учалах (Башкирия, Россия) (90 км)
Погода в Белорецке (Башкирия, Россия) (94 км)
Погода в Архангельском (Башкирия, Россия) (100 км)
Погода в Златоусте (Челябинская область, Россия) (103 км)
Погода в Дуване (Башкирия, Россия) (105 км)
Погода в Тукане (Башкирия, Россия) (109 км)
Погода в Верхнеуральске (Челябинская область, Россия) (118 км)
Погода в Миассе (Челябинская область, Россия) (122 км)
Погода в Емашах (Башкирия, Россия) (131 км)

Пояснения к столбцам:

Ветер - указаны скорость ветра в м/с - средняя за 10 мин, порывы в срок и между сроками (в фигурных скобках) и направление, откуда дует ветер: С - северный, СВ - северо-восточный, В - восточный, ЮВ - юго-восточный, Ю - южный, ЮЗ - юго-западный, З - западный, СЗ - северо-западный.
Видимость - горизонтальная дальность видимости в метрах или километрах. При видимости от 1 до 10 км при отсутствии осадков обычно наблюдается дымка, при ухудшении видимости до 1 км и менее - туман. В сухую погоду видимость может ухудшаться дымом, пылью или мглою.
Явления - указаны атмосферные явления, наблюдавшиеся в срок или в последний час перед сроком; фигурными скобками обозначены явления, наблюдавшиеся между сроками (за 1-3 часа до срока); квадратными скобками обозначены град или гололедные отложения с указанием их диаметра в мм.
Облачность - указаны через наклонную черту общая и нижняя облачность в баллах и высота нижней границы облаков в метрах; квадратными скобками обозначены формы облаков: Ci - перистые, Cs - перисто-слоистые, Cc - перисто-кучевые, Ac - высококучевые, As - высокослоистые, Sc - слоисто-кучевые, Ns - слоисто-дождевые, Cu - кучевые, Cb - кучево-дождевые. Подробнее классификацию облаков см. в Атласе облаков (PDF).
T - Температура воздуха - температура, измеренная на высоте 2 м над землей.
Td - Температура точки росы - температура, при понижении до которой содержащийся в воздухе водяной пар достигнет насыщения.
f - Относительная влажность воздуха - влажноcть воздуха, измеренная на высоте 2 м над землей.
Te - Эффективная температура - температура, которую ощущает одетый по сезону человек в тени. Характеристика душности погоды. При расчете учитывается влияние влажности воздуха и скорости ветра на теплоощущения человека.
Tes - Эффективная температура на солнце - температура, которую ощущает человек, с поправкой на солнечный нагрев. Характеристика знойности погоды. Зависит от высоты солнца над горизонтом, облачности и скорости ветра. Ночью, в пасмурную погоду, а также при ветре 12 м/с и более поправка равна нулю.
P - Атмосферное давление - приведенное к уровню моря атмосферное давление.
Po - Атмосферное давление - измеренное на уровне метеостанции атмосферное давление.
Tmin - Минимальная температура - минимум температуры воздуха на высоте 2 м над землей.
Tmax - Максимальная температура - максимум температуры воздуха на высоте 2 м над землей.
R - Количество осадков - Количество выпавших осадков за период времени, мм. При наведении курсора мыши на число - период времени, за который выпало указанное количество осадков.
R24 - Количество осадков - Количество выпавших осадков за 24 часа, мм.
S - Снежный покров - Высота снежного покрова, см. При наведении курсора мыши на число - состояние снежного покрова и степень покрытия местности в баллах.